#timestamp,LO_Frequency,Hit,StdDev 
1571569215.6,286047003.4,N
1571569235.4,286047004.2,N
1571569255.3,286047001.9,N
1571569275.1,286047001.4,N
1571569276.0,286047001.4,N
1571569295.8,286047001.6,N
1571569315.7,286047000.1,N
1571569335.5,286046998.4,N
1571569355.3,286046999.6,N
1571569375.2,286046997.7,N
1571569395.0,286046997.9,N
1571569395.9,286046997.9,N
1571569415.8,286046992.2,N
1571569435.6,286046989.8,N
1571569455.4,286046987.0,Y
1571569475.3,286046986.1,P
1571569495.1,286046986.1,N
1571569515.8,286046986.1,N
1571569535.7,286046985.5,N
1571569555.5,286046982.4,N
1571569575.4,286046981.8,N
1571569595.2,286046979.3,Y
1571569615.0,286046991.8,P
1571569615.9,286046991.8,P
1571569635.8,286046992.2,P
1571569655.6,286046990.6,Y
1571569675.4,286046998.6,P
1571569695.3,286046996.7,N
1571569715.1,286046997.8,N
1571569735.9,286046996.5,N
1571569755.7,286047001.1,N
1571569775.5,286046999.7,N
1571569795.4,286047001.5,N
1571569815.2,286047005.7,N
1571569835.0,286047003.3,N
1571569835.9,286047003.3,N
1571569855.8,286047005.8,N
1571569875.6,286047003.2,N
1571569895.5,286047005.5,N
1571569915.3,286047007.6,N
1571569935.1,286047007.0,N
1571569955.9,286047008.4,N
1571569975.7,286047008.0,N
1571569995.6,286047008.9,N
1571570015.4,286047008.5,N
1571570035.2,286047010.4,N
1571570055.1,286047009.4,N
1571570056.0,286047009.4,N
1571570075.8,286047009.9,N
1571570095.6,286047008.2,N
1571570115.5,286047006.5,N
1571570135.3,286047008.5,N
1571570155.2,286047008.7,N
1571570175.9,286047008.3,N
1571570195.7,286047010.8,N
1571570215.6,286047008.0,N
1571570235.4,286047009.4,N
1571570255.3,286047010.2,N
1571570275.1,286047011.0,N
1571570276.0,286047011.0,Y
1571570295.8,286047009.2,P
1571570315.7,286047006.6,P
1571570335.5,286047008.4,P
1571570355.3,286047006.9,Y
1571570375.2,286046997.0,P
1571570395.0,286046997.5,N
1571570395.9,286046997.5,N
1571570415.8,286046996.1,N
1571570435.6,286046996.2,N
1571570455.4,286046994.0,N
1571570475.3,286046991.7,N
1571570495.1,286046992.2,N
1571570515.8,286046995.5,N
1571570535.7,286046997.9,N
1571570555.5,286046997.3,N
1571570575.4,286046997.7,N
1571570595.2,286046992.1,N
1571570615.0,286046990.9,N
1571570615.9,286046990.9,N
1571570665.8,286046988.0,E
1571570675.7,286046992.7,N
1571570695.6,286046998.4,P
1571570715.4,286046996.5,N
1571570735.2,286046998.1,N
1571570755.1,286046999.9,N
1571570756.0,286046999.9,N
1571570775.8,286046999.8,N
1571570795.7,286047001.3,N
1571570815.5,286047001.4,N
1571570835.3,286047001.5,N
1571570855.2,286047002.5,N
1571570875.9,286047002.8,N
1571570895.7,286046998.9,N
1571570915.6,286046999.5,N
1571570935.4,286046995.2,N
1571570955.2,286046993.5,N
1571570975.1,286046992.2,N
1571570976.0,286046992.2,N
1571570995.8,286046992.0,N
1571571015.7,286046994.7,N
1571571035.5,286046992.2,N
1571571055.3,286046994.5,N
1571571075.2,286046995.7,N
1571571095.0,286046995.6,N
1571571095.9,286046995.6,N
1571571115.8,286046993.0,N
1571571135.6,286046991.1,N
1571571155.4,286046990.4,N
1571571175.3,286046988.5,Y
1571571195.1,286046994.7,P
1571571215.8,286046994.3,P
1571571235.7,286046993.6,P
1571571255.5,286046992.5,Y
1571571275.4,286046997.5,P
1571571295.2,286046997.9,N
1571571315.0,286046995.5,P
1571571315.9,286046995.5,Y
1571571335.8,286046998.9,P
1571571355.6,286047002.5,N
1571571375.5,286047002.8,N
1571571395.3,286047000.0,N
1571571415.1,286047000.1,N
1571571435.9,286047001.7,N
1571571455.7,286047002.0,N
1571571475.5,286047001.5,N
1571571495.4,286047004.4,N
1571571515.2,286047003.3,N
1571571535.1,286047003.3,N
1571571536.0,286047003.3,N
1571571555.8,286047005.7,N
1571571575.6,286047005.3,N
1571571595.5,286047004.5,N
1571571615.3,286047008.6,Y
1571571635.1,286047007.3,P
1571571655.9,286047008.9,P
1571571675.7,286047010.7,P
1571571695.6,286047010.6,Y
1571571715.4,286047003.3,P
1571571735.2,286047003.2,N
1571571755.1,286047004.3,N
1571571756.0,286047004.3,N
1571571775.8,286047003.9,N
1571571795.6,286047001.4,N
1571571815.5,286047000.4,N
1571571835.3,286046998.6,N
1571571855.2,286046995.3,N
1571571875.9,286046995.9,N
1571571895.7,286046993.8,N
1571571915.6,286046994.1,N
1571571935.4,286046996.3,N
1571571955.3,286046995.8,N
1571571975.1,286046995.4,N
1571571976.0,286046995.4,N
1571571995.8,286046997.5,N
1571572015.7,286046996.7,N
1571572035.5,286046994.9,N
1571572055.3,286046997.6,N
1571572075.2,286046995.9,N
1571572095.0,286046996.0,N
1571572095.9,286046996.0,N
1571572115.8,286046999.8,N
1571572135.6,286047002.7,N
1571572155.4,286046998.3,N
1571572175.3,286046999.5,N
1571572195.1,286046998.7,N
1571572215.9,286047000.9,N
1571572235.7,286047001.7,N
1571572255.5,286047003.9,N
1571572275.4,286047002.9,N
1571572295.2,286047007.4,N
1571572315.0,286047008.7,N
1571572315.9,286047008.7,N
1571572335.8,286047008.8,N
1571572355.6,286047012.0,N
1571572375.5,286047011.2,N
1571572395.3,286047011.9,N
1571572415.1,286047009.7,N
1571572435.9,286047010.0,N
1571572455.7,286047011.6,N
1571572475.5,286047012.8,N
1571572495.4,286047015.8,N
1571572515.2,286047017.9,N
1571572535.1,286047020.2,N
1571572536.0,286047020.2,N
1571572555.8,286047025.1,Y
1571572575.6,286047020.0,P
1571572595.5,286047013.5,N
1571572615.3,286047010.2,N
1571572635.1,286047009.1,N
1571572655.9,286047009.2,N
1571572675.7,286047008.8,N
1571572695.6,286047006.4,N
1571572715.4,286047009.0,N
1571572735.2,286047008.1,N
1571572755.1,286047010.2,N
1571572756.0,286047010.2,N
1571572775.8,286047010.1,N
1571572795.6,286047011.3,Y
